Flag for Myanmar Weather past 2 weeks in Yangon, Myanmar

Now
93 °F

Scattered clouds.


Feels Like: 105 °F
Forecast: 81 / 99 °F
Wind: 6 mph from Southeast

Location: Rangoon Airport

Current Time: Apr 21, 2015 at 11:36:11 AM

Latest Report: Apr 21, 2015 at 11:00 AM


Visibility: 5 mi

Pressure: 29.86 "Hg

Humidity: 56%

Dew point: 75 °F

Location of YangonLocation

Historic Weather in Yangon — Graph

°F

Yangon temperature yesterday

Maximum temperature yesterday: 102 °F (at 3:00 PM)
Minimum temperature yesterday: 79 °F (at 4:30 AM)
Average temperature yesterday: 90 °F

Past Weeks' High & Low Weather Summary

 TemperatureHumidityPressure
High102 °F (Apr 8, 2:30 PM)100% (Apr 16, 6:00 AM)29.98 "Hg (Apr 16, 6:00 AM)
Low77 °F (Apr 7, 4:30 AM)21% (Apr 14, 6:30 AM)29.59 "Hg (Apr 9, 11:30 AM)
Average89 °F62%29.84 "Hg
* Reported Apr 6 11:00 AM — Apr 21 10:30 AM, Yangon, Weather by CustomWeather, © 2015

Note: Actual official high and low records may vary slightly from our data, if they occured in-between our weather recording intervals... More about our weather records

Advertising

Yangon weather history for previous 24 hours

 ConditionsComfort  
Time TempWeatherWind HumidityBarometerVisibility
10:30 AM
Tue, Apr 21
90 °FScattered clouds.7 mph63%29.86 "Hg5 mi
10:00 AM90 °FScattered clouds.3 mph63%29.86 "Hg5 mi
9:30 AM88 °FScattered clouds.8 mph66%29.89 "Hg5 mi
9:00 AM88 °FScattered clouds.8 mph66%29.89 "Hg5 mi
8:30 AM86 °FPassing clouds.7 mph70%29.86 "Hg4 mi
8:00 AM84 °FPassing clouds.3 mph74%29.86 "Hg4 mi
7:30 AM82 °FPassing clouds.3 mph45%29.86 "Hg4 mi
7:00 AM82 °FPassing clouds.5 mph84%29.83 "Hg4 mi
6:30 AM81 °FPassing clouds.2 mph94%29.83 "Hg4 mi
6:00 AM81 °FPassing clouds.5 mph94%29.83 "Hg4 mi
5:30 AM81 °FClear.3 mph94%29.80 "Hg4 mi
5:00 AM81 °FClear.6 mph94%29.80 "Hg4 mi
4:30 AM81 °FClear.6 mph94%29.80 "Hg4 mi
11:30 PM
Mon, Apr 20
82 °FClear.9 mph74%29.83 "Hg4 mi
11:00 PM82 °FClear.8 mph74%29.83 "Hg4 mi
10:30 PM84 °FClear.9 mph70%29.83 "Hg4 mi
10:00 PM84 °FClear.7 mph70%29.83 "Hg4 mi
9:00 PM88 °FPassing clouds.6 mph70%29.80 "Hg4 mi
8:30 PM88 °FPassing clouds.8 mph70%29.80 "Hg4 mi
8:00 PM88 °FPassing clouds.9 mph70%29.77 "Hg4 mi
7:30 PM91 °FPassing clouds.6 mph59%29.77 "Hg4 mi
7:00 PM91 °FPassing clouds.12 mph59%29.77 "Hg4 mi
6:00 PM95 °FPassing clouds.7 mph53%29.74 "Hg5 mi
5:30 PM99 °FPassing clouds.7 mph39%29.71 "Hg5 mi
5:00 PM100 °FPassing clouds.9 mph35%29.71 "Hg5 mi
4:30 PM102 °FPassing clouds.5 mph33%29.71 "Hg6 mi
4:00 PM102 °FScattered clouds.8 mph33%29.74 "Hg6 mi
3:30 PM102 °FScattered clouds.5 mph33%29.74 "Hg6 mi
3:00 PM102 °FScattered clouds.6 mph33%29.74 "Hg6 mi
2:30 PM100 °FPassing clouds.8 mph33%29.77 "Hg6 mi
2:00 PM100 °FPassing clouds.6 mph33%29.77 "Hg6 mi
1:30 PM100 °FPassing clouds.6 mph33%29.80 "Hg6 mi
1:00 PM99 °FPassing clouds.5 mph35%29.80 "Hg6 mi
12:30 PM99 °FPassing clouds.10 mph35%29.83 "Hg6 mi
12:00 PM99 °FPassing clouds.2 mph35%29.86 "Hg6 mi
11:00 AM97 °FSunny.3 mph39%29.89 "Hg6 mi
Weather by CustomWeather, © 2015

See weather overviewHow to use our weather pages